Total_Precipitation_Accumulation
0.76 0.79 0.91 1.00 1.00 0.99 0.99 0.96 1.01 1.02 1.05 1.09 1.11 1.12 1.11 1.17 1.35 1.60 1.55 1.50 1.53 1.59 1.68 1.79 1.82 1.92 1.92 1.74 1.67 1.63 1.67 1.79 1.62 1.38 1.34 1.29 1.15 1.03 1.03 0.97 0.92 0.93 0.90
0.53 0.60 0.73 0.87 0.88 0.88 0.90 1.02 1.07 1.04 0.98 0.89 0.93 0.99 0.99 1.10 1.32 1.63 1.77 1.77 1.78 1.70 1.77 1.99 2.00 1.97 1.88 1.76 1.77 1.69 1.66 1.80 1.74 1.55 1.52 1.42 1.32 1.17 1.10 1.04 0.90 0.87 0.91
0.43 0.48 0.59 0.74 0.85 0.91 0.96 1.03 1.10 1.10 1.03 0.99 1.00 1.02 1.10 1.18 1.24 1.43 1.62 1.69 1.73 1.70 1.81 1.87 1.87 1.94 1.85 1.79 1.71 1.67 1.65 1.78 1.89 1.76 1.73 1.71 1.57 1.40 1.31 1.17 1.04 1.03 0.89
0.41 0.49 0.58 0.67 0.82 0.94 1.01 1.07 1.14 1.16 1.12 1.12 1.13 1.18 1.24 1.28 1.28 1.37 1.51 1.61 1.66 1.70 1.80 1.86 1.88 1.87 1.92 2.02 1.90 1.84 1.89 1.95 2.02 1.98 1.91 2.00 1.92 1.71 1.54 1.35 1.19 1.09 1.00
0.45 0.53 0.59 0.68 0.75 0.84 1.00 1.12 1.23 1.29 1.20 1.23 1.33 1.34 1.32 1.25 1.20 1.40 1.54 1.55 1.67 1.75 1.75 1.72 1.77 1.95 2.04 2.06 1.91 1.91 2.02 2.00 1.97 1.99 1.95 2.05 2.06 1.92 1.62 1.37 1.28 1.24 1.16
0.62 0.66 0.69 0.77 0.86 0.90 0.98 1.04 1.19 1.26 1.31 1.39 1.46 1.47 1.40 1.22 1.40 1.53 1.54 1.56 1.65 1.70 1.71 1.64 1.56 1.60 1.70 1.79 1.75 1.70 1.75 1.80 1.86 1.87 1.88 1.93 1.97 1.89 1.70 1.52 1.39 1.29 1.24
0.77 0.89 0.95 1.00 1.11 1.13 1.15 1.14 1.18 1.32 1.41 1.44 1.45 1.46 1.44 1.50 1.54 1.42 1.36 1.28 1.33 1.41 1.41 1.38 1.21 1.13 1.34 1.42 1.56 1.54 1.45 1.41 1.44 1.58 1.70 1.73 1.86 1.91 1.87 1.67 1.60 1.50 1.34
1.06 1.19 1.32 1.38 1.45 1.50 1.55 1.51 1.51 1.55 1.63 1.62 1.54 1.55 1.64 1.67 1.65 1.43 1.32 1.19 1.18 1.19 1.18 1.14 1.13 1.11 1.17 1.26 1.33 1.34 1.29 1.25 1.25 1.26 1.37 1.56 1.73 1.88 1.89 1.80 1.75 1.64 1.45
1.40 1.52 1.63 1.68 1.72 1.73 1.71 1.75 1.80 1.89 1.90 1.90 1.86 1.90 1.91 1.97 1.94 1.64 1.49 1.30 1.25 1.19 1.21 1.26 1.25 1.14 1.19 1.16 1.15 1.17 1.18 1.23 1.24 1.23 1.26 1.43 1.62 1.73 1.87 1.82 1.76 1.66 1.49
1.49 1.60 1.77 1.88 1.94 1.89 1.88 1.99 2.13 2.25 2.21 2.21 2.23 2.23 2.15 2.11 2.06 1.71 1.50 1.30 1.32 1.30 1.34 1.30 1.23 1.09 1.05 0.99 0.99 1.07 1.05 1.06 1.16 1.19 1.19 1.29 1.42 1.55 1.71 1.68 1.59 1.60 1.46
1.76 1.77 1.82 1.90 2.01 2.01 2.06 2.09 2.21 2.32 2.31 2.27 2.19 2.11 2.04 2.05 2.01 1.72 1.54 1.35 1.39 1.42 1.33 1.28 1.22 1.13 0.97 0.91 0.86 0.89 0.92 0.98 1.05 1.10 1.19 1.30 1.44 1.56 1.58 1.57 1.56 1.47 1.40
1.97 2.03 2.01 2.03 1.98 1.93 2.06 2.17 2.26 2.37 2.32 2.26 2.26 2.13 2.03 2.00 1.86 1.65 1.49 1.40 1.48 1.53 1.48 1.38 1.31 1.18 0.96 0.89 0.80 0.81 0.85 0.84 0.95 1.04 1.10 1.20 1.32 1.47 1.57 1.63 1.63 1.51 1.33
1.86 1.89 1.94 1.95 1.97 1.99 2.06 2.15 2.26 2.29 2.26 2.19 2.20 2.19 2.09 1.99 1.93 1.73 1.49 1.36 1.36 1.39 1.50 1.57 1.41 1.24 1.06 0.93 0.92 0.89 0.83 0.78 0.91 1.03 1.02 1.06 1.14 1.27 1.53 1.74 1.84 1.76 1.49
1.53 1.56 1.56 1.66 1.74 1.89 2.07 2.09 2.16 2.23 2.26 2.26 2.21 2.15 2.10 2.04 2.04 1.86 1.63 1.44 1.41 1.46 1.53 1.57 1.44 1.31 1.14 1.00 0.96 0.87 0.77 0.76 0.84 0.94 1.01 1.08 1.18 1.28 1.41 1.57 1.76 1.79 1.62
1.32 1.35 1.41 1.53 1.63 1.80 1.99 2.10 2.02 2.03 2.17 2.10 1.99 1.89 1.83 1.80 1.87 1.77 1.56 1.46 1.46 1.53 1.59 1.66 1.60 1.48 1.36 1.22 1.12 1.06 1.01 0.96 0.91 0.93 1.05 1.10 1.15 1.16 1.22 1.35 1.55 1.65 1.51
1.22 1.23 1.25 1.28 1.39 1.50 1.64 1.73 1.67 1.48 1.52 1.45 1.32 1.20 1.17 1.21 1.28 1.24 1.15 1.10 1.14 1.28 1.39 1.55 1.55 1.44 1.36 1.32 1.28 1.22 1.15 1.08 1.02 1.00 1.03 1.07 1.08 1.10 1.16 1.25 1.36 1.45 1.40
1.19 1.15 1.16 1.17 1.24 1.27 1.32 1.42 1.46 1.33 1.15 1.06 0.92 0.79 0.73 0.75 0.85 0.92 0.94 0.94 0.96 0.99 1.09 1.28 1.28 1.25 1.23 1.24 1.21 1.12 1.05 1.05 1.07 1.03 0.98 1.03 1.08 1.11 1.14 1.22 1.27 1.37 1.41
1.39 1.32 1.21 1.17 1.18 1.18 1.21 1.27 1.36 1.40 1.29 1.07 0.83 0.63 0.55 0.56 0.65 0.80 0.92 0.87 0.89 0.87 0.91 1.05 1.10 1.11 1.14 1.19 1.17 1.16 1.11 1.12 1.13 1.09 1.07 1.09 1.17 1.20 1.19 1.22 1.29 1.32 1.36
1.29 1.31 1.21 1.16 1.18 1.21 1.22 1.29 1.37 1.38 1.41 1.32 1.05 0.74 0.57 0.56 0.64 0.79 0.87 0.81 0.89 0.91 0.94 1.01 1.06 1.07 1.10 1.17 1.18 1.18 1.17 1.19 1.17 1.18 1.18 1.19 1.26 1.32 1.23 1.17 1.21 1.27 1.23
1.02 1.01 0.95 0.98 1.02 1.08 1.14 1.18 1.23 1.29 1.32 1.28 1.13 0.86 0.59 0.53 0.61 0.81 0.89 0.93 0.99 1.01 1.02 1.01 1.08 1.10 1.11 1.11 1.14 1.14 1.16 1.19 1.19 1.19 1.24 1.27 1.27 1.28 1.20 1.17 1.16 1.21 1.16
0.85 0.79 0.71 0.77 0.88 0.94 1.01 1.06 1.07 1.09 1.12 1.11 1.01 0.71 0.49 0.49 0.63 0.80 0.93 1.02 1.02 1.03 1.03 1.04 1.06 1.03 1.03 1.04 1.07 1.08 1.15 1.18 1.18 1.17 1.22 1.27 1.27 1.24 1.19 1.18 1.16 1.17 1.21
0.84 0.81 0.66 0.67 0.81 0.85 0.86 0.95 0.95 0.96 0.98 1.00 0.90 0.65 0.54 0.57 0.71 0.85 1.01 1.06 1.02 1.00 0.97 0.98 0.98 0.97 0.93 0.96 1.03 1.09 1.16 1.17 1.15 1.14 1.17 1.20 1.21 1.19 1.17 1.16 1.19 1.23 1.25
0.75 0.81 0.69 0.62 0.70 0.70 0.76 0.94 0.97 0.95 0.97 0.97 0.83 0.72 0.70 0.79 0.89 0.99 1.08 1.08 1.02 0.98 0.97 0.96 0.94 0.90 0.83 0.84 0.87 0.94 1.05 1.10 1.06 1.04 1.09 1.09 1.10 1.08 1.05 1.04 1.07 1.15 1.19
0.59 0.69 0.62 0.55 0.60 0.69 0.80 0.93 1.00 0.98 0.99 1.00 0.88 0.77 0.76 0.85 0.92 0.98 1.03 1.00 0.93 0.94 0.94 0.90 0.83 0.78 0.76 0.83 0.86 0.81 0.80 0.80 0.79 0.83 0.90 0.93 0.98 1.03 1.01 0.98 1.03 1.07 1.15
0.57 0.65 0.58 0.49 0.50 0.59 0.75 0.87 0.94 0.94 0.93 0.90 0.82 0.74 0.74 0.80 0.87 0.86 0.82 0.80 0.78 0.78 0.76 0.74 0.75 0.73 0.69 0.63 0.63 0.61 0.61 0.58 0.54 0.58 0.70 0.81 0.85 0.93 1.00 1.03 1.08 1.15 1.18
0.50 0.57 0.54 0.45 0.43 0.50 0.64 0.76 0.84 0.88 0.90 0.87 0.82 0.79 0.80 0.81 0.76 0.72 0.71 0.69 0.69 0.68 0.66 0.64 0.63 0.59 0.57 0.53 0.49 0.49 0.47 0.43 0.41 0.45 0.51 0.62 0.73 0.85 0.92 0.95 0.98 1.07 1.13